VKG5451 ESSA-ESGG

Flight info

Callsign VKG5451
Flight time 0h 49m
Altitude 34000
Route ARS N623 BEDLA N866 LAPSI DCT MOXAM
Aircraft A333/H-SDE3GHIJ2J3J5M1RVWXY/LB2D1

Departure

Time 2026-05-07 18:48
Airport Stockholm-Arlanda Airport (ESSA)

Arrival

Time 2026-05-07 19:37
Airport Göteborg Landvetter Airport (ESGG)
Time Latitude Longitude Altitude Speed Heading
2026-05-07 18:19 59.64170 17.93100 115 ft 0 kts 90°
2026-05-07 18:36 59.64170 17.93077 94 ft 3 kts 90°
2026-05-07 18:37 59.64170 17.93037 95 ft 3 kts 90°
2026-05-07 18:37 59.64171 17.92997 111 ft 3 kts 90°
2026-05-07 18:37 59.64171 17.92957 111 ft 3 kts 90°
2026-05-07 18:37 59.64171 17.92925 111 ft 1 kts 90°
2026-05-07 18:38 59.64171 17.92922 111 ft 0 kts 90°
2026-05-07 18:38 59.64170 17.92913 116 ft 2 kts 112°
2026-05-07 18:38 59.64181 17.92890 112 ft 3 kts 137°
2026-05-07 18:39 59.64194 17.92863 113 ft 3 kts 124°
2026-05-07 18:39 59.64203 17.92831 112 ft 3 kts 117°
2026-05-07 18:39 59.64206 17.92818 112 ft 0 kts 117°
2026-05-07 18:40 59.64205 17.92824 112 ft 2 kts 118°
2026-05-07 18:41 59.64183 17.92868 112 ft 7 kts 147°
2026-05-07 18:41 59.64132 17.92842 114 ft 9 kts 237°
2026-05-07 18:41 59.64144 17.92700 114 ft 12 kts 289°
2026-05-07 18:41 59.64183 17.92558 113 ft 13 kts 299°
2026-05-07 18:42 59.64231 17.92374 117 ft 20 kts 296°
2026-05-07 18:42 59.64308 17.92072 116 ft 28 kts 295°
2026-05-07 18:42 59.64400 17.91928 113 ft 15 kts
2026-05-07 18:42 59.64504 17.91964 111 ft 16 kts
2026-05-07 18:43 59.64626 17.92006 113 ft 23 kts 12°
2026-05-07 18:43 59.64834 17.92083 107 ft 36 kts
2026-05-07 18:43 59.65078 17.92171 110 ft 35 kts 10°
2026-05-07 18:43 59.65314 17.92259 109 ft 35 kts 11°
2026-05-07 18:44 59.65484 17.92316 108 ft 6 kts 13°
2026-05-07 18:44 59.65526 17.92334 108 ft 7 kts 11°
2026-05-07 18:44 59.65579 17.92354 108 ft 11 kts
2026-05-07 18:44 59.65709 17.92399 108 ft 23 kts 10°
2026-05-07 18:45 59.65864 17.92456 111 ft 22 kts 11°
2026-05-07 18:45 59.66011 17.92512 110 ft 21 kts 11°
2026-05-07 18:45 59.66153 17.92562 113 ft 20 kts 10°
2026-05-07 18:45 59.66285 17.92610 120 ft 18 kts 10°
2026-05-07 18:46 59.66365 17.92637 121 ft 17 kts
2026-05-07 18:46 59.66470 17.92648 121 ft 13 kts 341°
2026-05-07 18:46 59.66552 17.92592 122 ft 12 kts 341°
2026-05-07 18:46 59.66616 17.92504 123 ft 11 kts 295°
2026-05-07 18:47 59.66594 17.92372 124 ft 11 kts 223°
2026-05-07 18:47 59.66551 17.92345 125 ft 0 kts 189°
2026-05-07 18:47 59.66530 17.92339 124 ft 13 kts 189°
2026-05-07 18:47 59.66229 17.92229 122 ft 74 kts 191°
2026-05-07 18:48 59.65528 17.91975 108 ft 129 kts 190°
2026-05-07 18:48 59.64495 17.91604 239 ft 165 kts 188°
2026-05-07 18:48 59.63357 17.91174 889 ft 168 kts 189°
2026-05-07 18:48 59.62201 17.90749 1678 ft 169 kts 189°
2026-05-07 18:49 59.61045 17.90225 2290 ft 178 kts 204°
2026-05-07 18:49 59.60146 17.88330 2587 ft 205 kts 239°
2026-05-07 18:49 59.59515 17.85679 3046 ft 220 kts 244°
2026-05-07 18:49 59.58861 17.82913 3742 ft 224 kts 244°
2026-05-07 18:50 59.58197 17.80097 4346 ft 232 kts 245°
2026-05-07 18:50 59.57475 17.77115 4737 ft 250 kts 245°
2026-05-07 18:50 59.56870 17.73845 5327 ft 258 kts 259°
2026-05-07 18:50 59.56750 17.70291 6123 ft 260 kts 271°
2026-05-07 18:51 59.56817 17.66741 6940 ft 262 kts 274°
2026-05-07 18:51 59.56910 17.63139 7762 ft 263 kts 274°
2026-05-07 18:51 59.56998 17.59524 8651 ft 263 kts 274°
2026-05-07 18:51 59.56992 17.55912 9515 ft 265 kts 265°
2026-05-07 18:52 59.56634 17.52339 10346 ft 267 kts 258°
2026-05-07 18:52 59.56121 17.48730 10755 ft 284 kts 255°
2026-05-07 18:52 59.55473 17.44912 11041 ft 303 kts 253°
2026-05-07 18:52 59.54724 17.40882 11327 ft 321 kts 252°
2026-05-07 18:53 59.53916 17.36689 11801 ft 332 kts 251°
2026-05-07 18:53 59.53084 17.32408 12459 ft 337 kts 252°
2026-05-07 18:53 59.52258 17.28131 13156 ft 340 kts 252°
2026-05-07 18:53 59.51423 17.23767 13881 ft 343 kts 252°
2026-05-07 18:54 59.50572 17.19293 14538 ft 345 kts 252°
2026-05-07 18:54 59.49732 17.14854 15216 ft 347 kts 252°
2026-05-07 18:54 59.48902 17.10460 15888 ft 349 kts 252°
2026-05-07 18:54 59.48041 17.05909 16548 ft 351 kts 252°
2026-05-07 18:55 59.47205 17.01496 17185 ft 352 kts 252°
2026-05-07 18:55 59.46342 16.96962 17838 ft 354 kts 252°
2026-05-07 18:55 59.45470 16.92412 18467 ft 357 kts 252°
2026-05-07 18:55 59.44596 16.87837 18975 ft 359 kts 252°
2026-05-07 18:56 59.43714 16.83221 19481 ft 362 kts 252°
2026-05-07 18:56 59.42824 16.78576 19988 ft 364 kts 252°
2026-05-07 18:56 59.41928 16.73910 20513 ft 366 kts 252°
2026-05-07 18:56 59.41023 16.69217 21019 ft 369 kts 252°
2026-05-07 18:57 59.40111 16.64497 21500 ft 371 kts 252°
2026-05-07 18:57 59.39187 16.59730 21914 ft 375 kts 252°
2026-05-07 18:57 59.38253 16.54922 22367 ft 379 kts 252°
2026-05-07 18:57 59.37310 16.50083 22848 ft 381 kts 252°
2026-05-07 18:58 59.36362 16.45230 23318 ft 383 kts 252°
2026-05-07 18:58 59.35405 16.40339 23772 ft 385 kts 252°
2026-05-07 18:58 59.34446 16.35457 24148 ft 387 kts 252°
2026-05-07 18:58 59.33471 16.30499 24521 ft 390 kts 252°
2026-05-07 18:59 59.32494 16.25546 24885 ft 392 kts 252°
2026-05-07 18:59 59.31504 16.20540 25263 ft 394 kts 252°
2026-05-07 18:59 59.30512 16.15535 25626 ft 396 kts 252°
2026-05-07 18:59 59.29511 16.10498 25998 ft 398 kts 252°
2026-05-07 19:00 59.28503 16.05442 26373 ft 400 kts 252°
2026-05-07 19:00 59.27496 16.00405 26726 ft 402 kts 252°
2026-05-07 19:00 59.26476 15.95308 27082 ft 404 kts 252°
2026-05-07 19:00 59.25447 15.90182 27450 ft 406 kts 252°
2026-05-07 19:01 59.24413 15.85045 27782 ft 408 kts 252°
2026-05-07 19:01 59.23370 15.79873 28128 ft 410 kts 252°
2026-05-07 19:01 59.22319 15.74678 28466 ft 412 kts 252°
2026-05-07 19:01 59.21260 15.69458 28657 ft 417 kts 251°
2026-05-07 19:02 59.20184 15.64164 28874 ft 421 kts 251°
2026-05-07 19:02 59.19099 15.58844 29230 ft 423 kts 251°
2026-05-07 19:02 59.18010 15.53519 29552 ft 425 kts 252°
2026-05-07 19:02 59.16907 15.48140 29837 ft 428 kts 252°
2026-05-07 19:03 59.16003 15.43741 30112 ft 430 kts 252°
2026-05-07 19:03 59.14874 15.38257 30400 ft 432 kts 252°
2026-05-07 19:03 59.13765 15.32890 30653 ft 434 kts 252°
2026-05-07 19:03 59.12636 15.27437 30914 ft 435 kts 251°
2026-05-07 19:04 59.11498 15.21959 31222 ft 436 kts 251°
2026-05-07 19:04 59.10361 15.16503 31624 ft 435 kts 251°
2026-05-07 19:04 59.09223 15.11062 32021 ft 433 kts 251°
2026-05-07 19:04 59.08088 15.05645 32377 ft 432 kts 251°
2026-05-07 19:05 59.06952 15.00232 32740 ft 432 kts 252°
2026-05-07 19:05 59.05818 14.94845 33117 ft 431 kts 252°
2026-05-07 19:05 59.04681 14.89456 33473 ft 430 kts 252°
2026-05-07 19:05 59.03547 14.84096 33781 ft 430 kts 252°
2026-05-07 19:06 59.02601 14.79632 33911 ft 433 kts 251°
2026-05-07 19:06 59.00315 14.68887 34133 ft 432 kts 251°
2026-05-07 19:06 58.99176 14.63566 34138 ft 430 kts 251°
2026-05-07 19:07 58.98029 14.58221 34025 ft 433 kts 251°
2026-05-07 19:07 58.96865 14.52792 33344 ft 438 kts 251°
2026-05-07 19:07 58.95687 14.47303 32414 ft 444 kts 251°
2026-05-07 19:07 58.94491 14.41748 31520 ft 449 kts 251°
2026-05-07 19:08 58.93279 14.36147 30677 ft 452 kts 251°
2026-05-07 19:08 58.91874 14.30668 29819 ft 459 kts 241°
2026-05-07 19:08 58.90061 14.25560 29054 ft 460 kts 238°
2026-05-07 19:08 58.88186 14.20593 28466 ft 455 kts 237°
2026-05-07 19:09 58.86310 14.15697 27855 ft 451 kts 237°
2026-05-07 19:09 58.84445 14.10865 27253 ft 447 kts 237°
2026-05-07 19:09 58.82590 14.06074 26607 ft 444 kts 236°
2026-05-07 19:09 58.80773 14.01394 25988 ft 441 kts 236°
2026-05-07 19:10 58.78947 13.96703 25467 ft 436 kts 236°
2026-05-07 19:10 58.77126 13.92034 24863 ft 434 kts 236°
2026-05-07 19:10 58.75319 13.87412 24293 ft 430 kts 236°
2026-05-07 19:10 58.73526 13.82834 23757 ft 427 kts 236°
2026-05-07 19:11 58.71745 13.78295 23117 ft 423 kts 236°
2026-05-07 19:11 58.69979 13.73806 22490 ft 419 kts 236°
2026-05-07 19:11 58.68226 13.69354 21878 ft 416 kts 236°
2026-05-07 19:11 58.66486 13.64945 21246 ft 412 kts 235°
2026-05-07 19:12 58.64759 13.60578 20655 ft 409 kts 235°
2026-05-07 19:12 58.63043 13.56246 20053 ft 405 kts 235°
2026-05-07 19:12 58.61352 13.51989 19143 ft 398 kts 235°
2026-05-07 19:12 58.59681 13.47784 18078 ft 394 kts 234°
2026-05-07 19:13 58.58056 13.43710 17626 ft 374 kts 234°
2026-05-07 19:13 58.56520 13.39866 17246 ft 355 kts 234°
2026-05-07 19:13 58.55060 13.36215 16860 ft 341 kts 234°
2026-05-07 19:13 58.53609 13.32605 16464 ft 344 kts 233°
2026-05-07 19:14 58.52026 13.29133 16085 ft 348 kts 230°
2026-05-07 19:14 58.50380 13.25762 15700 ft 346 kts 229°
2026-05-07 19:14 58.48736 13.22441 15296 ft 343 kts 229°
2026-05-07 19:14 58.47124 13.19191 14916 ft 341 kts 229°
2026-05-07 19:15 58.45515 13.15947 14524 ft 338 kts 229°
2026-05-07 19:15 58.43902 13.12697 14139 ft 336 kts 228°
2026-05-07 19:15 58.42298 13.09467 13726 ft 334 kts 228°
2026-05-07 19:15 58.40703 13.06260 13317 ft 332 kts 228°
2026-05-07 19:16 58.39113 13.03065 12942 ft 331 kts 228°
2026-05-07 19:16 58.37508 12.99846 12556 ft 330 kts 228°
2026-05-07 19:16 58.35953 12.96730 12155 ft 329 kts 227°
2026-05-07 19:16 58.34376 12.93575 11785 ft 328 kts 227°
2026-05-07 19:17 58.32806 12.90439 11398 ft 327 kts 227°
2026-05-07 19:17 58.31246 12.87327 11064 ft 322 kts 227°
2026-05-07 19:17 58.29749 12.84347 10952 ft 300 kts 227°
2026-05-07 19:17 58.28359 12.81587 10862 ft 279 kts 227°
2026-05-07 19:18 58.27043 12.78970 10734 ft 270 kts 227°
2026-05-07 19:18 58.25757 12.76417 10602 ft 263 kts 227°
2026-05-07 19:18 58.24483 12.73886 10119 ft 269 kts 227°
2026-05-07 19:18 58.23166 12.71274 9532 ft 277 kts 227°
2026-05-07 19:19 58.21832 12.68632 9142 ft 277 kts 227°
2026-05-07 19:19 58.20498 12.65996 8771 ft 276 kts 227°
2026-05-07 19:19 58.19177 12.63389 8438 ft 273 kts 226°
2026-05-07 19:19 58.17863 12.60799 8087 ft 272 kts 226°
2026-05-07 19:20 58.16552 12.58215 7729 ft 271 kts 226°
2026-05-07 19:20 58.15247 12.55648 7388 ft 270 kts 226°
2026-05-07 19:20 58.13942 12.53084 7050 ft 269 kts 225°
2026-05-07 19:20 58.12649 12.50545 6719 ft 267 kts 225°
2026-05-07 19:21 58.11363 12.48025 6394 ft 266 kts 225°
2026-05-07 19:21 58.10083 12.45517 6025 ft 265 kts 225°
2026-05-07 19:21 58.08803 12.43013 5638 ft 265 kts 225°
2026-05-07 19:21 58.07518 12.40504 5276 ft 265 kts 225°
2026-05-07 19:22 58.06243 12.38016 5115 ft 264 kts 224°
2026-05-07 19:22 58.04964 12.35521 5004 ft 264 kts 225°
2026-05-07 19:22 58.03689 12.33038 4871 ft 264 kts 224°
2026-05-07 19:22 58.02407 12.30546 4740 ft 264 kts 224°
2026-05-07 19:23 58.01134 12.28070 4610 ft 263 kts 225°
2026-05-07 19:23 57.99863 12.25602 4474 ft 262 kts 224°
2026-05-07 19:23 57.98588 12.23135 4350 ft 262 kts 224°
2026-05-07 19:23 57.97189 12.21051 4218 ft 260 kts 207°
2026-05-07 19:24 57.95483 12.20078 4088 ft 257 kts 187°
2026-05-07 19:24 57.93756 12.19251 3971 ft 258 kts 206°
2026-05-07 19:24 57.92327 12.17230 3898 ft 259 kts 223°
2026-05-07 19:24 57.91054 12.14823 3778 ft 259 kts 225°
2026-05-07 19:25 57.89804 12.12377 3666 ft 259 kts 226°
2026-05-07 19:25 57.88543 12.09965 3568 ft 258 kts 225°
2026-05-07 19:25 57.87284 12.07602 3472 ft 253 kts 225°
2026-05-07 19:25 57.86060 12.05320 3351 ft 243 kts 225°
2026-05-07 19:26 57.84884 12.03135 3236 ft 233 kts 225°
2026-05-07 19:26 57.83742 12.01047 3124 ft 226 kts 221°
2026-05-07 19:26 57.82424 11.99480 3007 ft 225 kts 205°
2026-05-07 19:26 57.80964 11.98408 2910 ft 226 kts 200°
2026-05-07 19:27 57.79481 11.97433 2818 ft 226 kts 200°
2026-05-07 19:27 57.77987 11.96465 2744 ft 234 kts 197°
2026-05-07 19:27 57.76318 11.95870 2658 ft 252 kts 187°
2026-05-07 19:27 57.74556 11.95577 2562 ft 256 kts 186°
2026-05-07 19:28 57.72819 11.95346 2518 ft 248 kts 185°
2026-05-07 19:28 57.71063 11.95285 2522 ft 254 kts 179°
2026-05-07 19:28 57.69338 11.95530 2511 ft 242 kts 175°
2026-05-07 19:28 57.67714 11.95964 2518 ft 234 kts 174°
2026-05-07 19:29 57.66107 11.96528 2523 ft 235 kts 175°
2026-05-07 19:29 57.64513 11.96221 2527 ft 230 kts 197°
2026-05-07 19:29 57.62933 11.95616 2506 ft 234 kts 191°
2026-05-07 19:29 57.61316 11.95046 2507 ft 236 kts 191°
2026-05-07 19:30 57.59671 11.94612 2508 ft 244 kts 185°
2026-05-07 19:30 57.57963 11.94465 2509 ft 246 kts 182°
2026-05-07 19:30 57.56269 11.94458 2507 ft 246 kts 174°
2026-05-07 19:30 57.54581 11.95279 2495 ft 257 kts 159°
2026-05-07 19:31 57.52933 11.96637 2504 ft 259 kts 155°
2026-05-07 19:31 57.51317 11.98100 2506 ft 258 kts 154°
2026-05-07 19:31 57.49702 11.99591 2411 ft 259 kts 153°
2026-05-07 19:31 57.48209 12.01416 2277 ft 258 kts 136°
2026-05-07 19:32 57.47236 12.04176 2141 ft 256 kts 108°
2026-05-07 19:32 57.47054 12.06300 2054 ft 249 kts 85°
2026-05-07 19:32 57.47579 12.09258 1919 ft 238 kts 57°
2026-05-07 19:32 57.48598 12.11597 1777 ft 229 kts 41°
2026-05-07 19:33 57.49870 12.13247 1673 ft 218 kts 26°
2026-05-07 19:33 57.51210 12.14394 1547 ft 207 kts 23°
2026-05-07 19:33 57.52485 12.15476 1416 ft 197 kts 24°
2026-05-07 19:33 57.53630 12.16531 1561 ft 172 kts 25°
2026-05-07 19:34 57.54658 12.17474 1501 ft 157 kts 24°
2026-05-07 19:34 57.55578 12.18323 1469 ft 142 kts 24°
2026-05-07 19:34 57.56463 12.19090 1419 ft 140 kts 22°
2026-05-07 19:34 57.57345 12.19880 1448 ft 141 kts 26°
2026-05-07 19:35 57.58220 12.20734 1364 ft 141 kts 20°
2026-05-07 19:35 57.59094 12.21567 1234 ft 141 kts 21°
2026-05-07 19:35 57.59990 12.22302 1118 ft 140 kts 24°
2026-05-07 19:35 57.60874 12.23059 1081 ft 140 kts 21°
2026-05-07 19:36 57.61750 12.23881 1007 ft 142 kts 24°
2026-05-07 19:36 57.62629 12.24663 898 ft 141 kts 23°
2026-05-07 19:36 57.63515 12.25467 795 ft 141 kts 24°
2026-05-07 19:36 57.64399 12.26269 652 ft 141 kts 24°
2026-05-07 19:37 57.65286 12.27074 508 ft 142 kts 24°
2026-05-07 19:37 57.66089 12.27801 512 ft 113 kts 26°
2026-05-07 19:37 57.66712 12.28364 516 ft 87 kts 26°
2026-05-07 19:37 57.67141 12.28756 518 ft 43 kts 26°
2026-05-07 19:38 57.67345 12.28946 518 ft 24 kts 27°
2026-05-07 19:38 57.67433 12.29061 519 ft 14 kts 53°
2026-05-07 19:38 57.67462 12.29237 519 ft 14 kts 86°
2026-05-07 19:38 57.67455 12.29317 519 ft 1 kts 108°
2026-05-07 19:39 57.67433 12.29346 519 ft 4 kts 163°
2026-05-07 19:39 57.67370 12.29316 519 ft 16 kts 206°
2026-05-07 19:39 57.67239 12.29196 518 ft 26 kts 206°
2026-05-07 19:39 57.67035 12.29012 518 ft 36 kts 207°
2026-05-07 19:40 57.66884 12.28876 517 ft 16 kts 203°
2026-05-07 19:40 57.66820 12.28928 519 ft 8 kts 117°
2026-05-07 19:40 57.66794 12.29026 519 ft 9 kts 116°
2026-05-07 19:40 57.66764 12.29134 520 ft 9 kts 120°
2026-05-07 19:41 57.66741 12.29217 520 ft 4 kts 115°
2026-05-07 19:41 57.66738 12.29229 520 ft 1 kts 117°
2026-05-07 19:41 57.66734 12.29246 520 ft 1 kts 116°
2026-05-07 19:41 57.66733 12.29250 520 ft 0 kts 116°